This is the latest recevied weather packets stored in our database for station/object WX6HNX-5. If no packets are shown the sender has not sent any weather packets the latest 10 day(s).
| Time | Temp. | Humidity | Pressure | Rain* | Wind** | Luminosity | Snow |
|---|---|---|---|---|---|---|---|
| 1777658764 | 26.67° C | 39% | 1013 hPa | 0 mm | - | - | - |
| 1777656963 | 26.11° C | 40% | 1013.2 hPa | 0 mm | - | - | - |
| 1777656664 | 26.11° C | 40% | 1013.2 hPa | 0 mm | - | - | - |
| 1777655763 | 25.56° C | 38% | 1013.2 hPa | 0 mm | - | - | - |
| 1777655464 | 25.56° C | 38% | 1013.3 hPa | 0 mm | - | - | - |
| 1777654564 | 25° C | 40% | 1013.3 hPa | 0 mm | - | - | - |
| 1777653745 | 25° C | 42% | 1013.4 hPa | 0 mm | - | - | - |
| 1777653446 | 25° C | 43% | 1013.3 hPa | 0 mm | - | - | - |
| 1777653145 | 25° C | 44% | 1013.4 hPa | 0 mm | - | - | - |
| 1777652845 | 24.44° C | 42% | 1013.3 hPa | 0 mm | - | - | - |
| 1777652545 | 23.89° C | 42% | 1013.3 hPa | 0 mm | - | - | - |
| 1777652245 | 23.89° C | 46% | 1013.3 hPa | 0 mm | - | - | - |
| 1777651945 | 23.33° C | 45% | 1013.3 hPa | 0 mm | - | - | - |
| 1777651645 | 23.33° C | 45% | 1013.3 hPa | 0 mm | - | - | - |
| 1777651345 | 23.33° C | 45% | 1013.3 hPa | 0 mm | - | - | - |
| 1777651045 | 22.78° C | 44% | 1013.3 hPa | 0 mm | - | - | - |
| 1777650746 | 22.78° C | 46% | 1013.3 hPa | 0 mm | - | - | - |
| 1777650445 | 22.22° C | 49% | 1013.3 hPa | 0 mm | - | - | - |
| 1777650145 | 22.22° C | 49% | 1013.2 hPa | 0 mm | - | - | - |
| 1777649845 | 22.22° C | 52% | 1013.3 hPa | 0 mm | - | - | - |
| 1777649545 | 21.67° C | 54% | 1013.3 hPa | 0 mm | - | - | - |
| 1777648945 | 21.11° C | 56% | 1013.2 hPa | 0 mm | - | - | - |
| 1777648644 | 20.56° C | 56% | 1013.2 hPa | 0 mm | - | - | - |
| 1777648345 | 20° C | 58% | 1013.1 hPa | 0 mm | - | - | - |
| 1777648045 | 20° C | 59% | 1013.1 hPa | 0 mm | - | - | - |
* Rain latest hour (hover to see other rain measurements)
** Current wind speed in m/s (hover to see current wind gust speed)